AMOS-3

Last updated on Tue Sep 22 2026 00:03:11 GMT+0000 (Coordinated Universal Time)

1 32794U 08022A 26264.50458409 -.00000120 00000+0 00000+0 0 9994 2 32794 0.6960 84.6095 0002071 52.6510 122.8047 1.00272687 83300
UTC large
Height (km)
Speed (km/s)
/
Latitude / Longitude
Inclination (degrees)
Orbital Period (minutes)
Azimuth
Elevation
Range (km)
Doppler Factor

Next 0 passes for location: London (51.5072 / 0.1276)

No passes found over London.
AMOS-3